Weather History for Petrolina Airport, Brazil

Change the Weather History Date:

Thursday, January 17, 2013

  Actual Average Record
Temperature  
Mean Temperature 84 °F -  
Max Temperature 96 °F - - ()
Min Temperature 73 °F - - ()
Cooling Degree Days 20    
Growing Degree Days 34 (Base 50)    
Moisture  
Dew Point 66 °F    
Average Humidity 54    
Maximum Humidity 94    
Minimum Humidity 32    
Precipitation  
Precipitation 0.00 in - - ()
Sea Level Pressure  
Sea Level Pressure 29.89 in    
Wind  
Wind Speed 6 mph ()    
Max Wind Speed 13 mph    
Max Gust Speed -    
Visibility 5.8 miles    
Events Rain , Thunderstorm    
T = Trace of Precipitation, MM = Missing Value Source: Averaged Metar Reports

Daily Weather History Graph

Daily Weather History Graph

Search for Another Location

Airport:

Trip Planner

Search our weather history database for the weather conditions in past years. The results will help you decide how hot, cold, wet, or windy it might be!

Date:

Astronomy

Jan. 17, 2013 Rise Set
Actual Time 6:34 AM BRST 7:10 PM BRST
Civil Twilight 6:11 AM BRST 7:32 PM BRST
Nautical Twilight 5:45 AM BRST 7:59 PM BRST
Astronomical Twilight 5:18 AM BRST 8:25 PM BRST
Moon 11:35 AM BRST (1/17) 11:45 PM BRST (1/17)
Length of Visible Light 13h 20m
Length of Day
12h 35m
Waxing Crescent, 36% of the Moon is Illuminated
Jan 17
Waxing Crescent
Jan 18
First Quarter
Jan 27
Full
Feb 3
Last Quarter
Feb 10
New

Hourly Weather History & Observations

Time (BRST) Temp. Heat Index Dew Point Humidity Pressure Visibility Wind Dir Wind Speed Gust Speed Precip Events Conditions
12:00 AM 80.6 °F 82.7 °F 66.2 °F 61% 29.89 in - South 6.9 mph - N/A   Clear
1:00 AM 89.6 °F 90.1 °F 62.6 °F 40% 29.83 in - SE 3.5 mph - N/A   Clear
2:00 AM 78.8 °F - 68.0 °F 69% 29.86 in - SSE 3.5 mph - N/A   Clear
3:00 AM 78.8 °F - 66.2 °F 65% 29.86 in - South 4.6 mph - N/A   Clear
4:00 AM 78.8 °F - 68.0 °F 69% 29.86 in - South 5.8 mph - N/A   Clear
5:00 AM 80.6 °F 83.2 °F 68.0 °F 65% 29.86 in - ESE 6.9 mph - N/A   Clear
6:00 AM 80.6 °F 82.7 °F 66.2 °F 61% 29.89 in - ESE 10.4 mph - N/A   Clear
7:00 AM 78.8 °F - 66.2 °F 65% 29.92 in - ESE 8.1 mph - N/A   Clear
8:00 AM 82.4 °F 85.4 °F 68.0 °F 62% 29.95 in - ESE 12.7 mph - N/A   Clear
9:00 AM 82.4 °F 84.6 °F 66.2 °F 58% 29.98 in 6.2 mi East 11.5 mph - N/A   Mostly Cloudy
10:00 AM 84.2 °F 86.6 °F 66.2 °F 55% 29.98 in 6.2 mi ESE 10.4 mph - N/A   Mostly Cloudy
11:00 AM 87.8 °F 90.4 °F 66.2 °F 49% 29.98 in 6.2 mi SE 9.2 mph - N/A   Mostly Cloudy
12:00 PM 89.6 °F 91.1 °F 64.4 °F 43% 29.95 in 6.2 mi ENE 6.9 mph - N/A   Mostly Cloudy
1:00 PM 91.4 °F 93.2 °F 64.4 °F 41% 29.95 in 6.2 mi ESE 3.5 mph - N/A   Mostly Cloudy
2:00 PM 95.0 °F 96.0 °F 62.6 °F 34% 29.89 in 6.2 mi ESE 8.1 mph - N/A   Mostly Cloudy
3:00 PM 95.0 °F 96.0 °F 62.6 °F 34% 29.83 in 6.2 mi ENE 6.9 mph - N/A   Mostly Cloudy
4:00 PM 96.8 °F 98.0 °F 62.6 °F 32% 29.83 in 6.2 mi ESE 5.8 mph - N/A   Scattered Clouds
5:00 PM 95.0 °F 96.0 °F 62.6 °F 34% 29.80 in 6.2 mi East 9.2 mph - N/A   Scattered Clouds
6:00 PM 93.2 °F 93.3 °F 60.8 °F 34% 29.80 in 6.2 mi SSE 6.9 mph - N/A   Scattered Clouds
7:00 PM 91.4 °F 92.1 °F 62.6 °F 38% 29.83 in 6.2 mi SE 5.8 mph - N/A   Scattered Clouds
8:00 PM 89.6 °F 90.1 °F 62.6 °F 40% - 6.2 mi South 4.6 mph - N/A Thunderstorm Mostly Cloudy
9:00 PM 84.2 °F 86.6 °F 66.2 °F 55% - 3.7 mi ENE 9.2 mph - N/A Rain , Thunderstorm Light Thunderstorms and Rain
10:00 PM 73.4 °F - 71.6 °F 94% - 5.0 mi South 5.8 mph - N/A Rain , Thunderstorm Light Thunderstorms and Rain
11:00 PM 73.4 °F - 71.6 °F 94% - 3.7 mi SW 9.2 mph - N/A Rain , Thunderstorm Light Thunderstorms and Rain